FW4242 Weather Reports


time (UTC)temp
F
wind
direction
speed
knots
gust
knots
rain 1hr
in
rain 24hr
in
rain mn
in
humidity
%
barometer
mb
20260505200012 61 278 0.0 5.2 0.00 0.00 0.00 76 1014.9
20260505194527 61 310 0.9 2.6 0.00 0.00 0.00 75 1015.0
20260505193029 61 67 0.0 2.6 0.00 0.00 0.00 76 1015.1
20260505191549 59 150 0.0 2.6 0.00 0.00 0.00 79 1015.1
20260505190034 58 354 0.0 1.7 0.00 0.00 0.00 80 1015.2
20260505184532 58 254 0.0 2.6 0.00 0.00 0.00 80 1015.2
20260505183031 58 145 0.0 4.3 0.00 0.00 0.00 80 1015.2
20260505181528 57 160 0.0 2.6 0.00 0.00 0.00 81 1015.1
20260505180041 58 162 0.0 3.5 0.00 0.00 0.00 80 1015.1
20260505174536 58 240 0.9 4.3 0.00 0.00 0.00 80 1015.1
20260505173053 58 238 0.0 2.6 0.00 0.00 0.00 80 1015.0
20260505171553 58 220 0.9 3.5 0.00 0.00 0.00 80 1014.9
20260505170122 58 259 0.0 4.3 0.00 0.00 0.00 80 1014.8
20260505164550 58 155 1.7 5.2 0.00 0.00 0.00 79 1014.7
20260505163048 57 243 0.9 3.5 0.00 0.00 0.00 81 1014.6
20260505161555 57 113 0.0 2.6 0.00 0.00 0.00 82 1014.6
20260505153012 55 149 0.9 3.5 0.00 0.00 0.00 85 1014.5
20260505151511 55 245 0.0 4.3 0.00 0.00 0.00 86 1014.5
20260505124523 54 255 0.0 1.7 0.00 0.00 0.00 86 1013.4
20260505123030 54 162 0.0 0.9 0.00 0.00 0.00 86 1013.4
20260505121523 54 205 0.0 3.5 0.00 0.00 0.00 86 1013.4
20260505120026 54 262 0.0 0.0 0.00 0.00 0.00 86 1013.3
20260505114520 54 159 0.0 0.9 0.00 0.00 0.00 85 1013.3
20260505113028 54 250 0.9 3.5 0.00 0.00 0.00 85 1013.3
20260505111527 54 162 0.0 0.0 0.00 0.00 0.00 85 1013.2
20260505101515 54 166 0.0 0.0 0.00 0.00 0.00 86 1012.9
20260505100009 54 197 0.0 0.0 0.00 0.00 0.00 85 1012.9
20260505094508 54 156 0.0 1.7 0.00 0.00 0.00 85 1012.8
20260505093009 54 158 0.0 1.7 0.00 0.00 0.00 85 1012.8
20260505091505 55 195 0.0 3.5 0.00 0.00 0.00 84 1012.7
20260505084557 56 203 0.0 0.9 0.00 0.00 0.00 82 1012.4
20260505083107 56 248 0.0 1.7 0.00 0.00 0.00 82 1012.3
20260505081557 57 256 0.0 0.0 0.00 0.00 0.00 81 1012.3
20260505080051 57 217 0.0 2.6 0.00 0.00 0.00 81 1012.2
20260505074550 57 261 0.0 0.9 0.00 0.00 0.00 81 1012.2
20260505073049 58 256 0.9 3.5 0.00 0.00 0.00 81 1011.9
20260505071548 58 206 0.0 4.3 0.00 0.00 0.00 81 1011.7
20260505070050 58 195 0.0 4.3 0.00 0.00 0.00 80 1011.5
20260505064556 59 202 0.0 0.0 0.00 0.00 0.00 79 1011.3
20260505063051 60 201 0.0 3.5 0.00 0.00 0.00 78 1011.2
20260505061544 61 281 0.9 4.3 0.00 0.00 0.00 76 1011.0
20260505060041 62 261 0.0 2.6 0.00 0.00 0.00 76 1010.8
20260505054543 63 303 0.0 0.0 0.00 0.00 0.00 75 1010.7
20260505053040 64 305 0.0 2.6 0.00 0.00 0.00 73 1010.6
20260505051540 64 276 0.0 2.6 0.00 0.00 0.00 73 1010.6
20260505041536 67 229 0.9 4.3 0.00 0.00 0.00 72 1009.7
20260505040034 68 252 0.0 3.5 0.00 0.00 0.00 72 1009.3
20260505034503 68 168 0.0 4.3 0.00 0.00 0.00 73 1009.0
20260505033002 69 204 0.0 1.7 0.00 0.00 0.00 72 1008.8
20260505031608 69 140 0.9 7.0 0.00 0.00 0.00 71 1008.6
20260505030059 70 166 0.0 2.6 0.00 0.00 0.00 70 1008.5
20260505024558 71 114 0.9 5.2 0.00 0.00 0.00 68 1008.4
20260505023103 72 215 0.9 4.3 0.00 0.00 0.00 66 1008.4
20260505021530 73 193 0.0 5.2 0.00 0.00 0.00 64 1008.3
20260505020024 74 229 0.9 7.8 0.00 0.00 0.00 63 1008.4
20260505014521 74 285 0.0 9.6 0.00 0.00 0.00 63 1008.4
20260505013023 74 155 0.9 7.8 0.00 0.00 0.00 62 1008.6
20260505011517 75 143 1.7 5.2 0.00 0.00 0.00 61 1008.6
20260505010016 74 162 1.7 7.0 0.00 0.00 0.00 61 1008.7
20260505004546 75 251 0.9 5.2 0.00 0.00 0.00 62 1008.8
20260505003044 75 142 0.9 6.1 0.00 0.00 0.00 61 1008.9
20260505001548 75 251 0.0 7.8 0.00 0.00 0.00 60 1008.9
20260505000042 74 169 2.6 6.1 0.00 0.00 0.00 59 1009.0
20260504234535 73 139 1.7 7.8 0.00 0.00 0.00 61 1009.0
20260504233035 73 208 5.2 8.7 0.00 0.00 0.00 60 1009.1
20260504231539 73 210 2.6 7.0 0.00 0.00 0.00 61 1009.3
20260504230027 73 252 0.9 6.1 0.00 0.00 0.00 60 1009.4
20260504224527 72 196 4.3 8.7 0.00 0.00 0.00 60 1009.6
20260504223022 72 229 1.7 8.7 0.00 0.00 0.00 59 1009.7
20260504221520 71 197 0.0 6.1 0.00 0.00 0.00 61 1009.9
20260504220020 71 205 1.7 7.0 0.00 0.00 0.00 62 1010.0
20260504214512 69 153 2.6 7.8 0.00 0.00 0.00 64 1010.1
20260504213012 69 148 1.7 7.8 0.00 0.00 0.00 65 1010.4
20260504211511 69 236 0.9 6.1 0.00 0.00 0.00 66 1010.5
20260504210003 67 199 2.6 7.8 0.00 0.00 0.00 66 1010.7
20260504204604 67 172 0.9 8.7 0.00 0.00 0.00 68 1011.0
20260504203103 65 241 2.6 7.8 0.00 0.00 0.00 70 1011.2
20260504201553 65 150 0.0 7.0 0.00 0.00 0.00 70 1011.4